Flag for U.S.A. Weather past 2 weeks in Washington DC, District of Columbia, U.S.A.

Now
73 °F

Broken clouds.


Feels Like: 72 °F
Forecast: 69 / 89 °F
Wind: 12 mph from South

Location: Reagan National Airport

Current Time: May 30, 2015 at 7:37:12 AM

Latest Report: May 30, 2015 at 6:52 AM


Visibility: 10 mi

Pressure: 30.19 "Hg

Humidity: 84%

Dew point: 68 °F

Location of Washington DCLocation

Historic Weather in Washington DC — Graph

°F

Washington DC temperature yesterday

Maximum temperature yesterday: 85 °F (at 2:52 PM)
Minimum temperature yesterday: 74 °F (at 6:52 AM)
Average temperature yesterday: 79 °F

Past Weeks' High & Low Weather Summary

 TemperatureHumidityPressure
High92 °F (May 28, 2:52 PM)91% (May 18, 11:52 PM)30.47 "Hg (May 18, 11:52 PM)
Low53 °F (May 21, 1:52 PM)22% (May 23, 2:52 PM)29.83 "Hg (May 19, 6:52 PM)
Average74 °F61%30.15 "Hg
* Reported May 15 5:52 AM — May 30 5:52 AM, Washington DC, Weather by CustomWeather, © 2015

Note: Actual official high and low records may vary slightly from our data, if they occured in-between our weather recording intervals... More about our weather records

Advertising

Washington DC weather history for previous 24 hours

 ConditionsComfort  
Time TempWeatherWind HumidityBarometerVisibility
5:52 AM
Sat, May 30
73 °FPassing clouds.10 mph81%30.19 "Hg10 mi
4:52 AM72 °FPassing clouds.9 mph84%30.18 "Hg10 mi
3:52 AM73 °FPassing clouds.6 mph81%30.18 "Hg10 mi
2:52 AM74 °FPassing clouds.9 mph76%30.19 "Hg10 mi
1:52 AM74 °FOvercast.9 mph76%30.19 "Hg10 mi
12:52 AM75 °FPassing clouds.9 mph71%30.19 "Hg10 mi
11:52 PM
Fri, May 29
76 °FPassing clouds.9 mph69%30.19 "Hg10 mi
10:52 PM78 °FPartly cloudy.12 mph69%30.20 "Hg10 mi
9:52 PM79 °FPassing clouds.7 mph69%30.21 "Hg10 mi
8:52 PM80 °FMostly cloudy.8 mph69%30.19 "Hg10 mi
7:52 PM81 °FBroken clouds.12 mph67%30.17 "Hg10 mi
6:52 PM84 °FBroken clouds.13 mph65%30.17 "Hg10 mi
5:52 PM85 °FScattered clouds.7 mph61%30.18 "Hg10 mi
4:52 PM85 °FScattered clouds.6 mph61%30.19 "Hg10 mi
4:01 PM82 °FScattered clouds.9 mph58%30.21 "Hg10 mi
2:52 PM85 °FScattered clouds.5 mph61%30.23 "Hg10 mi
1:52 PM81 °FScattered clouds.No wind67%30.26 "Hg10 mi
12:52 PM79 °FOvercast.7 mph72%30.27 "Hg10 mi
11:52 AM77 °FOvercast.No wind71%30.27 "Hg10 mi
10:52 AM76 °FOvercast.7 mph72%30.27 "Hg10 mi
9:52 AM76 °FOvercast.8 mph69%30.27 "Hg10 mi
8:52 AM76 °FMostly cloudy.9 mph67%30.27 "Hg10 mi
7:52 AM75 °FScattered clouds.12 mph66%30.26 "Hg10 mi
Weather by CustomWeather, © 2015

See weather overviewHow to use our weather pages